Location: Korczew
(51.3586°N, 19.4491°E)
Time: 22:04:32
(UTC+00:00)

Cosmos 1400 Rocket - Pass Details

Date: 19 May 2025
Orbit: 484 x 519 km, 81.1° (Epoch: 16 June)

Event Time Altitude Azimuth Distance (km) Brightness Sun altitude
Rises 19:31:05 0° 194° (SSW) 2,558 5.9 -7.7°
Reaches altitude 10° 19:33:11 10° 195° (SSW) 1,677 5.0 -8.0°
Maximum altitude 19:36:51 80° 282° (WNW) 502 2.7 -8.3°
Drops below altitude 10° 19:40:33 10° 11° (N) 1,681 5.9 -8.7°
Sets 19:42:40 0° 12° (NNE) 2,566 6.8 -8.9°
